Time,TemperatureF,DewpointF,PressureIn,WindDirection,WindDirectionDegrees,WindSpeedMPH,WindSpeedGustMPH,Humidity,HourlyPrecipIn,Conditions,Clouds,dailyrainin,SoftwareType,DateUTC
2013-08-15 00:13:00,64.0,61.0,29.86,SSE,160,0.0,1.0,91,0.00,,,0.00,weatherlink.com 1.10,2013-08-15 05:13:00,
2013-08-15 00:28:00,63.7,61.0,29.86,SSE,160,0.0,1.0,92,0.00,,,0.00,weatherlink.com 1.10,2013-08-15 05:28:00,
2013-08-15 00:43:00,63.6,61.0,29.85,SE,136,0.0,2.0,91,0.00,,,0.00,weatherlink.com 1.10,2013-08-15 05:43:00,
2013-08-15 00:58:00,63.5,61.0,29.86,SSE,162,0.0,1.0,91,0.00,,,0.00,weatherlink.com 1.10,2013-08-15 05:58:00,
2013-08-15 01:13:00,63.4,61.0,29.86,South,187,0.0,0.0,90,0.00,,,0.00,weatherlink.com 1.10,2013-08-15 06:13:00,
2013-08-15 01:28:00,63.1,61.0,29.86,South,188,0.0,1.0,91,0.00,,,0.00,weatherlink.com 1.10,2013-08-15 06:28:00,
2013-08-15 01:43:00,62.4,60.0,29.86,SSE,159,0.0,1.0,91,0.00,,,0.00,weatherlink.com 1.10,2013-08-15 06:43:00,
2013-08-15 01:58:00,61.9,60.0,29.86,SSE,159,0.0,1.0,92,0.00,,,0.00,weatherlink.com 1.10,2013-08-15 06:58:00,
2013-08-15 02:13:00,61.6,60.0,29.85,SSE,159,0.0,0.0,93,0.01,,,0.01,weatherlink.com 1.10,2013-08-15 07:13:00,
2013-08-15 02:28:00,61.2,60.0,29.84,SE,141,0.0,1.0,94,0.01,,,0.01,weatherlink.com 1.10,2013-08-15 07:28:00,
2013-08-15 02:43:00,60.9,59.0,29.85,SSE,154,0.0,3.0,94,0.01,,,0.01,weatherlink.com 1.10,2013-08-15 07:43:00,
2013-08-15 02:59:00,60.8,59.0,29.84,SSE,154,0.0,1.0,95,0.06,,,0.06,weatherlink.com 1.10,2013-08-15 07:59:00,
2013-08-15 03:13:00,60.5,59.0,29.84,SSE,157,0.0,1.0,95,0.11,,,0.12,weatherlink.com 1.10,2013-08-15 08:13:00,
2013-08-15 03:28:00,60.4,59.0,29.85,SSE,149,0.0,1.0,96,0.15,,,0.16,weatherlink.com 1.10,2013-08-15 08:28:00,
2013-08-15 03:44:00,60.4,59.0,29.86,SSE,149,0.0,2.0,96,0.19,,,0.20,weatherlink.com 1.10,2013-08-15 08:44:00,
2013-08-15 03:59:00,60.4,59.0,29.86,SSE,149,0.0,1.0,96,0.16,,,0.22,weatherlink.com 1.10,2013-08-15 08:59:00,
2013-08-15 04:14:00,60.4,59.0,29.86,South,190,0.0,2.0,96,0.24,,,0.36,weatherlink.com 1.10,2013-08-15 09:14:00,
2013-08-15 04:29:00,60.2,59.0,29.86,SSE,161,0.0,3.0,96,0.23,,,0.39,weatherlink.com 1.10,2013-08-15 09:29:00,
2013-08-15 04:44:00,60.1,59.0,29.86,SSE,161,0.0,1.0,97,0.21,,,0.41,weatherlink.com 1.10,2013-08-15 09:44:00,
2013-08-15 04:59:00,60.0,59.0,29.85,SSE,160,0.0,5.0,97,0.27,,,0.50,weatherlink.com 1.10,2013-08-15 09:59:00,
2013-08-15 05:14:00,60.0,59.0,29.85,South,188,0.0,3.0,97,0.15,,,0.51,weatherlink.com 1.10,2013-08-15 10:14:00,
2013-08-15 05:29:00,60.0,59.0,29.84,South,188,0.0,6.0,97,0.13,,,0.52,weatherlink.com 1.10,2013-08-15 10:29:00,
2013-08-15 05:44:00,59.8,59.0,29.84,South,181,1.0,6.0,97,0.11,,,0.52,weatherlink.com 1.10,2013-08-15 10:44:00,
2013-08-15 05:59:00,59.8,59.0,29.84,SSE,163,0.0,5.0,97,0.03,,,0.53,weatherlink.com 1.10,2013-08-15 10:59:00,
2013-08-15 06:14:00,59.7,59.0,29.84,SSW,196,0.0,2.0,97,0.02,,,0.53,weatherlink.com 1.10,2013-08-15 11:14:00,
2013-08-15 06:29:00,59.5,59.0,29.84,SSW,193,0.0,6.0,97,0.01,,,0.53,weatherlink.com 1.10,2013-08-15 11:29:00,
2013-08-15 06:44:00,59.5,59.0,29.85,SSE,160,0.0,4.0,97,0.00,,,0.53,weatherlink.com 1.10,2013-08-15 11:44:00,
2013-08-15 06:59:00,59.5,59.0,29.85,SE,125,0.0,5.0,97,0.00,,,0.53,weatherlink.com 1.10,2013-08-15 11:59:00,
2013-08-15 07:14:00,59.4,59.0,29.85,ESE,111,0.0,5.0,97,0.00,,,0.53,weatherlink.com 1.10,2013-08-15 12:14:00,
2013-08-15 07:29:00,59.5,59.0,29.86,SE,143,0.0,1.0,97,0.00,,,0.53,weatherlink.com 1.10,2013-08-15 12:29:00,
2013-08-15 07:44:00,59.4,59.0,29.86,SSW,196,0.0,2.0,97,0.00,,,0.53,weatherlink.com 1.10,2013-08-15 12:44:00,
2013-08-15 07:59:00,59.3,59.0,29.86,South,186,1.0,7.0,97,0.00,,,0.53,weatherlink.com 1.10,2013-08-15 12:59:00,
2013-08-15 08:14:00,59.3,59.0,29.86,SSE,148,0.0,8.0,97,0.00,,,0.53,weatherlink.com 1.10,2013-08-15 13:14:00,
2013-08-15 08:29:00,59.1,58.0,29.87,SE,138,0.0,4.0,97,0.00,,,0.53,weatherlink.com 1.10,2013-08-15 13:29:00,
2013-08-15 08:44:00,59.2,58.0,29.87,South,169,0.0,5.0,97,0.00,,,0.53,weatherlink.com 1.10,2013-08-15 13:44:00,
2013-08-15 08:59:00,59.4,59.0,29.87,SSE,160,0.0,7.0,97,0.00,,,0.53,weatherlink.com 1.10,2013-08-15 13:59:00,
2013-08-15 09:14:00,59.4,59.0,29.87,SE,145,0.0,8.0,97,0.00,,,0.53,weatherlink.com 1.10,2013-08-15 14:14:00,
2013-08-15 09:29:00,59.6,59.0,29.86,ESE,107,1.0,4.0,97,0.00,,,0.53,weatherlink.com 1.10,2013-08-15 14:29:00,
2013-08-15 09:59:00,59.7,59.0,29.86,SSW,199,0.0,4.0,96,0.00,,,0.53,weatherlink.com 1.10,2013-08-15 14:59:00,
2013-08-15 10:14:00,59.7,59.0,29.86,SE,138,0.0,7.0,96,0.00,,,0.53,weatherlink.com 1.10,2013-08-15 15:14:00,
2013-08-15 10:29:00,60.0,59.0,29.86,ESE,114,2.0,9.0,96,0.00,,,0.53,weatherlink.com 1.10,2013-08-15 15:29:00,
2013-08-15 10:44:00,60.4,59.0,29.86,WSW,246,0.0,7.0,96,0.00,,,0.53,weatherlink.com 1.10,2013-08-15 15:44:00,
2013-08-15 10:59:00,60.7,59.0,29.86,SSE,151,0.0,6.0,95,0.00,,,0.53,weatherlink.com 1.10,2013-08-15 15:59:00,
2013-08-15 11:14:00,60.7,59.0,29.86,South,173,2.0,9.0,94,0.00,,,0.53,weatherlink.com 1.10,2013-08-15 16:14:00,
2013-08-15 11:29:00,61.1,60.0,29.86,SW,215,0.0,8.0,95,0.00,,,0.53,weatherlink.com 1.10,2013-08-15 16:29:00,
2013-08-15 11:59:00,61.7,60.0,29.85,SSE,155,0.0,9.0,94,0.00,,,0.53,weatherlink.com 1.10,2013-08-15 16:59:00,
2013-08-15 12:14:00,62.7,61.0,29.84,SE,146,0.0,6.0,93,0.00,,,0.53,weatherlink.com 1.10,2013-08-15 17:14:00,
2013-08-15 12:29:00,64.2,61.0,29.84,SSW,209,1.0,7.0,90,0.00,,,0.53,weatherlink.com 1.10,2013-08-15 17:29:00,
2013-08-15 12:44:00,64.4,61.0,29.84,SSW,193,0.0,12.0,89,0.00,,,0.53,weatherlink.com 1.10,2013-08-15 17:44:00,
2013-08-15 12:59:00,64.7,61.0,29.83,SSE,163,1.0,7.0,88,0.00,,,0.53,weatherlink.com 1.10,2013-08-15 17:59:00,
2013-08-15 13:14:00,64.8,61.0,29.83,SSE,167,1.0,9.0,88,0.00,,,0.53,weatherlink.com 1.10,2013-08-15 18:14:00,
2013-08-15 13:29:00,65.5,62.0,29.83,SE,144,0.0,6.0,87,0.00,,,0.53,weatherlink.com 1.10,2013-08-15 18:29:00,
2013-08-15 13:44:00,65.3,61.0,29.83,South,179,3.0,7.0,86,0.00,,,0.53,weatherlink.com 1.10,2013-08-15 18:44:00,
2013-08-15 13:59:00,65.3,61.0,29.83,ESE,115,1.0,6.0,87,0.00,,,0.53,weatherlink.com 1.10,2013-08-15 18:59:00,
2013-08-15 14:29:00,65.5,61.0,29.84,South,169,0.0,5.0,86,0.00,,,0.53,weatherlink.com 1.10,2013-08-15 19:29:00,
2013-08-15 14:45:00,65.9,61.0,29.84,South,191,4.0,6.0,85,0.00,,,0.53,weatherlink.com 1.10,2013-08-15 19:45:00,
2013-08-15 15:00:00,65.4,61.0,29.84,SE,138,0.0,8.0,85,0.00,,,0.53,weatherlink.com 1.10,2013-08-15 20:00:00,
2013-08-15 15:14:00,65.0,61.0,29.83,SSE,168,6.0,6.0,86,0.00,,,0.53,weatherlink.com 1.10,2013-08-15 20:14:00,
2013-08-15 15:44:00,65.4,61.0,29.83,SW,236,0.0,3.0,86,0.00,,,0.53,weatherlink.com 1.10,2013-08-15 20:44:00,
2013-08-15 15:59:00,65.5,61.0,29.83,SSE,161,0.0,3.0,86,0.00,,,0.53,weatherlink.com 1.10,2013-08-15 20:59:00,
2013-08-15 16:29:00,65.7,61.0,29.82,SE,142,0.0,5.0,85,0.00,,,0.53,weatherlink.com 1.10,2013-08-15 21:29:00,
2013-08-15 16:44:00,65.6,61.0,29.82,SSE,150,0.0,5.0,84,0.00,,,0.53,weatherlink.com 1.10,2013-08-15 21:44:00,
2013-08-15 16:59:00,65.6,61.0,29.82,SE,128,1.0,5.0,84,0.00,,,0.53,weatherlink.com 1.10,2013-08-15 21:59:00,
2013-08-15 17:14:00,65.1,60.0,29.82,SSW,192,0.0,5.0,84,0.00,,,0.53,weatherlink.com 1.10,2013-08-15 22:14:00,
2013-08-15 17:29:00,64.6,59.0,29.83,South,175,0.0,4.0,83,0.00,,,0.53,weatherlink.com 1.10,2013-08-15 22:29:00,
2013-08-15 17:44:00,64.4,60.0,29.83,South,175,0.0,5.0,84,0.00,,,0.53,weatherlink.com 1.10,2013-08-15 22:44:00,
2013-08-15 17:59:00,64.2,59.0,29.83,SSE,155,0.0,4.0,84,0.00,,,0.53,weatherlink.com 1.10,2013-08-15 22:59:00,
2013-08-15 18:14:00,64.1,60.0,29.83,SSE,151,0.0,4.0,85,0.00,,,0.53,weatherlink.com 1.10,2013-08-15 23:14:00,
2013-08-15 18:29:00,64.0,60.0,29.83,SE,130,0.0,3.0,85,0.00,,,0.53,weatherlink.com 1.10,2013-08-15 23:29:00,
2013-08-15 18:44:00,63.7,59.0,29.84,South,186,0.0,3.0,85,0.00,,,0.53,weatherlink.com 1.10,2013-08-15 23:44:00,
2013-08-15 18:59:00,63.4,60.0,29.84,SE,146,0.0,1.0,87,0.00,,,0.53,weatherlink.com 1.10,2013-08-15 23:59:00,
2013-08-15 19:14:00,62.7,59.0,29.85,SSE,159,2.0,3.0,87,0.00,,,0.53,weatherlink.com 1.10,2013-08-16 00:14:00,
2013-08-15 19:29:00,62.5,59.0,29.85,SSE,160,0.0,1.0,88,0.00,,,0.53,weatherlink.com 1.10,2013-08-16 00:29:00,
2013-08-15 19:44:00,62.3,59.0,29.85,SSE,160,0.0,2.0,89,0.00,,,0.53,weatherlink.com 1.10,2013-08-16 00:44:00,
2013-08-15 19:59:00,62.4,59.0,29.86,SSE,160,0.0,0.0,89,0.00,,,0.53,weatherlink.com 1.10,2013-08-16 00:59:00,
2013-08-15 20:30:00,62.4,60.0,29.87,SSE,160,0.0,1.0,90,0.00,,,0.53,weatherlink.com 1.10,2013-08-16 01:30:00,
2013-08-15 20:44:00,62.4,60.0,29.87,SSE,160,0.0,0.0,92,0.00,,,0.53,weatherlink.com 1.10,2013-08-16 01:44:00,
2013-08-15 20:59:00,62.4,60.0,29.87,SSE,160,0.0,1.0,93,0.00,,,0.53,weatherlink.com 1.10,2013-08-16 01:59:00,
2013-08-15 21:14:00,62.3,60.0,29.88,SSE,161,0.0,2.0,93,0.00,,,0.53,weatherlink.com 1.10,2013-08-16 02:14:00,
2013-08-15 21:30:00,62.3,60.0,29.88,SSE,159,0.0,1.0,93,0.00,,,0.53,weatherlink.com 1.10,2013-08-16 02:30:00,
2013-08-15 21:45:00,62.3,60.0,29.89,SSE,159,0.0,1.0,92,0.00,,,0.53,weatherlink.com 1.10,2013-08-16 02:45:00,
2013-08-15 22:00:00,62.4,60.0,29.90,SSE,163,1.0,3.0,92,0.00,,,0.53,weatherlink.com 1.10,2013-08-16 03:00:00,
2013-08-15 22:15:00,62.4,60.0,29.90,SSE,163,0.0,0.0,92,0.00,,,0.53,weatherlink.com 1.10,2013-08-16 03:15:00,
2013-08-15 22:30:00,62.4,60.0,29.90,SSE,163,0.0,1.0,92,0.00,,,0.53,weatherlink.com 1.10,2013-08-16 03:30:00,
2013-08-15 22:45:00,62.4,60.0,29.89,SSE,163,0.0,1.0,92,0.00,,,0.53,weatherlink.com 1.10,2013-08-16 03:45:00,
2013-08-15 23:00:00,62.3,60.0,29.89,SSE,165,0.0,2.0,92,0.00,,,0.53,weatherlink.com 1.10,2013-08-16 04:00:00,
2013-08-15 23:15:00,62.3,60.0,29.89,SSE,165,1.0,1.0,92,0.00,,,0.53,weatherlink.com 1.10,2013-08-16 04:15:00,
2013-08-15 23:30:00,62.2,60.0,29.89,SSE,157,0.0,1.0,92,0.00,,,0.53,weatherlink.com 1.10,2013-08-16 04:30:00,
2013-08-15 23:45:00,62.2,60.0,29.90,SSE,157,0.0,1.0,92,0.00,,,0.53,weatherlink.com 1.10,2013-08-16 04:45:00,